Tracking 34800 objects as of 17-Jul-2026
HD Live streaming from Space Station
objects crossing your sky now

SL-8 DEB

Track SL-8 DEB now!
10-day predictions


NORAD ID: 5858
Int'l Code: 1971-114D
Perigee: 500.4 km
Apogee: 509.8 km
Inclination: 74.0 °
Period: 94.6 minutes
Semi major axis: 6876 km
RCS: 0.0106 m2 (small)
Launch date: December 17, 1971
Source: Commonwealth of Independent States (former USSR) (CIS)
Launch site: PLESETSK MISSILE AND SPACE COMPLEX (PKMTR)

Note: This is SATELLITE DEBRIS
Your satellite tracking list
Your tracking list is empty




NASA's NSSDC Master Catalog

Two Line Element Set (TLE):
1 05858U 71114D   26198.13698414  .00009742  00000-0  42032-3 0  9998
2 05858  73.9796  86.1636 0006851 223.6853 136.3804 15.22606447909974
Source of the keplerian elements: AFSPC